Ainsworth, NE

12:26 AM CDT on September 28, 2016 (GMT -0500)
Ainsworth Municipal

Weather History for KANW - December, 2011

Change the Weather History Date:

Saturday, December 31, 2011

  Actual Average Record
Temperature  
Mean Temperature 38 °F -  
Max Temperature 42 °F 34 °F 55 °F (1999)
Min Temperature 35 °F 13 °F -9 °F (2014)
Degree Days  
Heating Degree Days 26    
Moisture  
Dew Point 28 °F    
Average Humidity 66    
Maximum Humidity 81    
Minimum Humidity 49    
Precipitation  
Precipitation 0.00 in - - ()
Sea Level Pressure  
Sea Level Pressure 29.59 in    
Wind  
Wind Speed 16 mph (WNW)    
Max Wind Speed 32 mph    
Max Gust Speed 44 mph    
Visibility 10 miles    
Events      
Averages and records for this station are not official NWS values.
T = Trace of Precipitation, MM = Missing Value Source: NWS Daily Summary

Daily Weather History Graph

Daily Weather History Graph

Search for Another Location

Airport or City:

Trip Planner

Search our weather history database for the weather conditions in past years. The results will help you decide how hot, cold, wet, or windy it might be!

Date:

Astronomy

Dec. 31, 2011 Rise Set
Actual Time 8:09 AM CST 5:16 PM CST
Civil Twilight 7:37 AM CST 5:48 PM CST
Nautical Twilight 7:02 AM CST 6:23 PM CST
Astronomical Twilight 6:28 AM CST 6:57 PM CST
Moon 11:45 AM CST (12/31) 12:01 AM CST (12/31)
Length of Visible Light 10h 10m
Length of Day
9h 06m
Waxing Crescent, 45% of the Moon is Illuminated
Dec 31
Waxing Crescent
Jan 1
First Quarter
Jan 9
Full
Jan 16
Last Quarter
Jan 23
New

Hourly Weather History & Observations

Time (CST) Temp. Windchill Dew Point Humidity Pressure Visibility Wind Dir Wind Speed Gust Speed Precip Events Conditions
12:15 AM 35.6 °F 26.6 °F 23.0 °F 60% 29.57 in 10.0 mi South 13.8 mph - N/A   Clear
12:35 AM 35.6 °F 25.9 °F 23.0 °F 60% 29.56 in 10.0 mi SSW 16.1 mph 19.6 mph N/A   Clear
12:55 AM 35.6 °F 26.2 °F 24.8 °F 65% 29.55 in 10.0 mi SSW 15.0 mph - N/A   Clear
1:15 AM 35.6 °F 26.2 °F 24.8 °F 65% 29.55 in 10.0 mi SSW 15.0 mph - N/A   Clear
1:35 AM 37.4 °F 28.9 °F 24.8 °F 60% 29.54 in 10.0 mi SSW 13.8 mph 19.6 mph N/A   Clear
1:55 AM 35.6 °F 26.2 °F 24.8 °F 65% 29.53 in 10.0 mi SSW 15.0 mph - N/A   Clear
2:35 AM 35.6 °F 26.6 °F 26.6 °F 70% 29.51 in 10.0 mi SSW 13.8 mph - N/A   Clear
2:55 AM 35.6 °F 26.6 °F 26.6 °F 70% 29.51 in 10.0 mi SSW 13.8 mph - N/A   Clear
3:15 AM 37.4 °F 28.9 °F 26.6 °F 65% 29.50 in 10.0 mi SSW 13.8 mph - N/A   Clear
3:35 AM 37.4 °F 28.9 °F 26.6 °F 65% 29.48 in 10.0 mi SSW 13.8 mph - N/A   Clear
3:55 AM 39.2 °F 30.8 °F 26.6 °F 61% 29.48 in 10.0 mi SW 15.0 mph 20.7 mph N/A   Clear
4:15 AM 39.2 °F 30.8 °F 26.6 °F 61% 29.47 in 10.0 mi SSW 15.0 mph - N/A   Clear
4:35 AM 39.2 °F 32.0 °F 26.6 °F 61% 29.46 in 10.0 mi SSW 11.5 mph - N/A   Clear
4:55 AM 37.4 °F 29.8 °F 26.6 °F 65% 29.45 in 10.0 mi SSW 11.5 mph - N/A   Clear
5:15 AM 37.4 °F 30.8 °F 26.6 °F 65% 29.45 in 10.0 mi SW 9.2 mph - N/A   Clear
5:35 AM 35.6 °F 28.6 °F 26.6 °F 70% 29.44 in 10.0 mi SW 9.2 mph - N/A   Clear
5:55 AM 37.4 °F 29.8 °F 26.6 °F 65% 29.43 in 10.0 mi SW 11.5 mph - N/A   Clear
6:15 AM 37.4 °F 32.1 °F 26.6 °F 65% 29.43 in 10.0 mi WSW 6.9 mph - N/A   Clear
6:35 AM 37.4 °F 32.8 °F 26.6 °F 65% 29.43 in 10.0 mi WNW 5.8 mph - N/A   Clear
6:55 AM 35.6 °F 31.7 °F 26.6 °F 70% 29.43 in 10.0 mi West 4.6 mph - N/A   Clear
7:15 AM 35.6 °F 31.7 °F 28.4 °F 75% 29.44 in 10.0 mi SW 4.6 mph - N/A   Clear
7:35 AM 37.4 °F 29.8 °F 28.4 °F 70% 29.46 in 10.0 mi West 11.5 mph - N/A   Scattered Clouds
7:55 AM 42.8 °F 34.8 °F 28.4 °F 57% 29.44 in 10.0 mi NW 17.3 mph 23.0 mph N/A   Mostly Cloudy
8:15 AM 42.8 °F 34.0 °F 28.4 °F 57% 29.47 in 10.0 mi NW 20.7 mph 24.2 mph N/A   Scattered Clouds
8:35 AM 41.0 °F 32.2 °F 28.4 °F 61% 29.48 in 10.0 mi NNW 18.4 mph 24.2 mph N/A   Mostly Cloudy
8:55 AM 39.2 °F 32.0 °F 26.6 °F 61% 29.51 in 10.0 mi NW 11.5 mph 17.3 mph N/A   Scattered Clouds
9:15 AM 37.4 °F 31.4 °F 28.4 °F 70% 29.53 in 10.0 mi WNW 8.1 mph - N/A   Mostly Cloudy
9:35 AM 37.4 °F 30.8 °F 28.4 °F 70% 29.56 in 10.0 mi WNW 9.2 mph - N/A   Overcast
9:55 AM 37.4 °F 31.4 °F 28.4 °F 70% 29.56 in 10.0 mi WNW 8.1 mph - N/A   Overcast
10:15 AM 37.4 °F 30.8 °F 28.4 °F 70% 29.57 in 10.0 mi NW 9.2 mph - N/A   Overcast
10:35 AM 37.4 °F 28.9 °F 30.2 °F 75% 29.59 in 10.0 mi WNW 13.8 mph - N/A   Overcast
10:55 AM 37.4 °F 28.9 °F 32.0 °F 81% 29.59 in 10.0 mi NW 13.8 mph 17.3 mph N/A   Overcast
11:15 AM 37.4 °F 28.9 °F 32.0 °F 81% 29.60 in 10.0 mi NW 13.8 mph 17.3 mph N/A   Overcast
11:35 AM 37.4 °F 27.8 °F 32.0 °F 81% 29.60 in 10.0 mi NNW 17.3 mph 20.7 mph N/A   Overcast
11:55 AM 39.2 °F 30.2 °F 32.0 °F 75% 29.61 in 10.0 mi NNW 17.3 mph 26.5 mph N/A   Overcast
12:15 PM 41.0 °F 30.5 °F 33.8 °F 76% 29.60 in 10.0 mi NNW 26.5 mph 32.2 mph N/A   Overcast
12:35 PM 41.0 °F 30.2 °F 33.8 °F 76% 29.59 in 10.0 mi NNW 27.6 mph 35.7 mph N/A   Overcast
12:55 PM 41.0 °F 31.1 °F 33.8 °F 76% 29.61 in 10.0 mi NNW 23.0 mph 35.7 mph N/A   Overcast
1:15 PM 41.0 °F 30.7 °F 33.8 °F 76% 29.64 in 10.0 mi NW 25.3 mph 32.2 mph N/A   Light Drizzle
1:35 PM 39.2 °F 29.0 °F 33.8 °F 81% 29.64 in 10.0 mi NNW 21.9 mph 31.1 mph N/A   Overcast
1:55 PM 39.2 °F 29.6 °F 33.8 °F 81% 29.66 in 10.0 mi NW 19.6 mph 27.6 mph N/A   Overcast
2:15 PM 39.2 °F 29.0 °F 32.0 °F 75% 29.68 in 10.0 mi NNW 21.9 mph 28.8 mph N/A   Overcast
2:35 PM 41.0 °F 31.1 °F 32.0 °F 70% 29.67 in 10.0 mi NNW 23.0 mph 33.4 mph N/A   Overcast
2:55 PM 41.0 °F 30.9 °F 32.0 °F 70% 29.67 in 10.0 mi NNW 24.2 mph 38.0 mph N/A   Overcast
3:15 PM 41.0 °F 30.0 °F 30.2 °F 65% 29.71 in 10.0 mi NNW 28.8 mph 35.7 mph N/A   Overcast
3:35 PM 41.0 °F 29.8 °F 28.4 °F 61% 29.75 in 10.0 mi NNW 29.9 mph 35.7 mph N/A   Overcast
3:55 PM 41.0 °F 29.7 °F 26.6 °F 57% 29.78 in 10.0 mi NNW 31.1 mph 38.0 mph N/A   Overcast
4:15 PM 41.0 °F 30.2 °F 26.6 °F 57% 29.80 in 10.0 mi NW 27.6 mph 34.5 mph N/A   Overcast
4:35 PM 41.0 °F 29.8 °F 23.0 °F 49% 29.83 in 10.0 mi NW 29.9 mph 43.7 mph N/A   Overcast
4:55 PM 41.0 °F 29.5 °F 23.0 °F 49% 29.86 in 10.0 mi NW 32.2 mph 42.6 mph N/A   Overcast
5:15 PM 41.0 °F 30.7 °F 23.0 °F 49% 29.87 in 10.0 mi NW 25.3 mph 36.8 mph N/A   Overcast
5:35 PM 41.0 °F 30.0 °F 23.0 °F 49% 29.90 in 10.0 mi NW 28.8 mph 41.4 mph N/A   Overcast
5:55 PM 41.0 °F 29.8 °F 23.0 °F 49% 29.92 in 10.0 mi NW 29.9 mph 36.8 mph N/A   Overcast
6:15 PM 41.0 °F 30.9 °F 24.8 °F 53% 29.94 in 10.0 mi NW 24.2 mph 39.1 mph N/A   Overcast
6:35 PM 41.0 °F 30.2 °F 24.8 °F 53% 29.97 in 10.0 mi NW 27.6 mph 39.1 mph N/A   Overcast
6:55 PM 41.0 °F 30.5 °F 24.8 °F 53% 29.99 in 10.0 mi NW 26.5 mph 35.7 mph N/A   Overcast
7:15 PM 39.2 °F 28.0 °F 23.0 °F 52% 30.01 in 10.0 mi NW 26.5 mph 35.7 mph N/A   Scattered Clouds
7:35 PM 37.4 °F 26.1 °F 23.0 °F 56% 30.03 in 10.0 mi NW 24.2 mph 29.9 mph N/A   Clear
7:55 PM 37.4 °F 27.2 °F 23.0 °F 56% 30.05 in 10.0 mi NW 19.6 mph 28.8 mph N/A   Clear
8:15 PM 35.6 °F 23.4 °F 23.0 °F 60% 30.06 in 10.0 mi NW 25.3 mph 28.8 mph N/A   Clear
8:35 PM 35.6 °F 24.5 °F 23.0 °F 60% 30.07 in 10.0 mi NW 20.7 mph 28.8 mph N/A   Clear
8:55 PM 35.6 °F 24.8 °F 23.0 °F 60% 30.08 in 10.0 mi NW 19.6 mph - N/A   Clear
9:15 PM 35.6 °F 24.5 °F 23.0 °F 60% 30.10 in 10.0 mi NW 20.7 mph - N/A   Clear
9:35 PM 35.6 °F 24.2 °F 23.0 °F 60% 30.11 in 10.0 mi NW 21.9 mph 29.9 mph N/A   Clear
9:55 PM 33.8 °F 21.9 °F 23.0 °F 65% 30.12 in 10.0 mi NW 21.9 mph 28.8 mph N/A   Clear
10:15 PM 33.8 °F 21.6 °F 23.0 °F 65% 30.14 in 10.0 mi NW 23.0 mph 31.1 mph N/A   Clear
10:35 PM 33.8 °F 21.6 °F 23.0 °F 65% 30.15 in 10.0 mi NW 23.0 mph 31.1 mph N/A   Clear
10:55 PM 33.8 °F 22.2 °F 23.0 °F 65% 30.16 in 10.0 mi NW 20.7 mph 31.1 mph N/A   Clear
11:15 PM 33.8 °F 22.2 °F 23.0 °F 65% 30.17 in 10.0 mi NW 20.7 mph 31.1 mph N/A   Clear
11:35 PM 33.8 °F 21.6 °F 23.0 °F 65% 30.18 in 10.0 mi NW 23.0 mph 31.1 mph N/A   Clear
11:55 PM 33.8 °F 21.6 °F 23.0 °F 65% 30.19 in 10.0 mi NW 23.0 mph 31.1 mph N/A   Clear